Price, UT

7:28 AM MST on December 03, 2016 (GMT -0700)
Carbon County

Weather History for KPUC - September, 2012

Change the Weather History Date:

Sunday, September 16, 2012

  Actual Average Record
Temperature  
Mean Temperature 66 °F -  
Max Temperature 86 °F 72 °F 90 °F (2000)
Min Temperature 48 °F 45 °F 35 °F (2006)
Cooling Degree Days 1    
Growing Degree Days 16 (Base 50)    
Moisture  
Dew Point 18 °F    
Average Humidity 16    
Maximum Humidity 27    
Minimum Humidity 8    
Precipitation  
Precipitation 0.00 in - - ()
Sea Level Pressure  
Sea Level Pressure 30.00 in    
Wind  
Wind Speed 5 mph (NNE)    
Max Wind Speed 16 mph    
Max Gust Speed 22 mph    
Visibility 10 miles    
Events      
Averages and records for this station are not official NWS values.
T = Trace of Precipitation, MM = Missing Value Source: NWS Daily Summary

Daily Weather History Graph

Daily Weather History Graph

Search for Another Location

Airport or City:

Trip Planner

Search our weather history database for the weather conditions in past years. The results will help you decide how hot, cold, wet, or windy it might be!

Date:

Astronomy

Sep. 16, 2012 Rise Set
Actual Time 7:05 AM MDT 7:29 PM MDT
Civil Twilight 6:38 AM MDT 7:55 PM MDT
Nautical Twilight 6:06 AM MDT 8:27 PM MDT
Astronomical Twilight 5:34 AM MDT 8:59 PM MDT
Moon 7:48 AM MDT (9/16) 7:36 PM MDT (9/16)
Length of Visible Light 13h 17m
Length of Day
12h 23m
New Moon, 1% of the Moon is Illuminated
Sep 16
New Moon
Sep 22
First Quarter
Sep 29
Full
Oct 8
Last Quarter
Oct 15
New

Hourly Weather History & Observations

Time (MDT) Temp. Dew Point Humidity Pressure Visibility Wind Dir Wind Speed Gust Speed Precip Events Conditions
12:53 AM 55.9 °F 14.0 °F 19% 30.04 in 10.0 mi Calm Calm - N/A   Clear
1:53 AM 55.0 °F 15.1 °F 21% 30.04 in 10.0 mi NE 9.2 mph - N/A   Clear
2:53 AM 53.1 °F 15.1 °F 22% 30.05 in 10.0 mi NNE 8.1 mph - N/A   Clear
3:53 AM 54.0 °F 15.1 °F 22% 30.02 in 10.0 mi North 6.9 mph - N/A   Clear
4:53 AM 51.1 °F 14.0 °F 23% 30.03 in 10.0 mi ENE 4.6 mph - N/A   Clear
5:53 AM 53.1 °F 15.1 °F 22% 30.02 in 10.0 mi East 3.5 mph - N/A   Clear
6:53 AM 48.9 °F 16.0 °F 27% 30.07 in 10.0 mi North 5.8 mph - N/A   Clear
7:53 AM 55.0 °F 18.0 °F 23% 30.08 in 10.0 mi Calm Calm - N/A   Clear
8:53 AM 66.0 °F 17.1 °F 15% 30.04 in 10.0 mi Calm Calm - N/A   Clear
9:53 AM 68.0 °F 19.0 °F 15% 30.07 in 10.0 mi South 3.5 mph - N/A   Clear
10:53 AM 72.0 °F 19.0 °F 13% 30.05 in 10.0 mi SE 4.6 mph - N/A   Clear
11:53 AM 77.0 °F 19.9 °F 12% 30.02 in 10.0 mi SSE 5.8 mph - N/A   Clear
12:53 PM 80.1 °F 19.0 °F 10% 30.00 in 10.0 mi SSE 9.2 mph - N/A   Clear
1:53 PM 82.4 °F 17.6 °F 9% 30.19 in 10.0 mi ENE 5.8 mph - N/A   Clear
2:53 PM 84.9 °F 17.1 °F 8% 29.94 in 10.0 mi SW 6.9 mph - N/A   Clear
3:53 PM 84.0 °F 16.0 °F 8% 29.91 in 10.0 mi Variable 4.6 mph - N/A   Clear
4:53 PM 82.9 °F 16.0 °F 8% 29.91 in 10.0 mi WSW 10.4 mph 21.9 mph N/A   Clear
5:53 PM 82.9 °F 17.1 °F 9% 29.90 in 10.0 mi West 16.1 mph 21.9 mph N/A   Clear
6:53 PM 80.1 °F 19.0 °F 10% 29.93 in 10.0 mi West 11.5 mph 19.6 mph N/A   Clear
7:53 PM 75.0 °F 19.9 °F 13% 29.94 in 10.0 mi NW 9.2 mph - N/A   Clear
8:53 PM 64.9 °F 19.9 °F 18% 29.95 in 10.0 mi North 8.1 mph - N/A   Clear
9:53 PM 66.9 °F 19.9 °F 17% 29.93 in 10.0 mi WSW 3.5 mph - N/A   Clear
10:53 PM 64.9 °F 21.0 °F 19% 29.91 in 10.0 mi Calm Calm - N/A   Clear
11:53 PM 61.0 °F 21.0 °F 21% 29.91 in 10.0 mi Calm Calm - N/A   Clear